OPS 4682 DEB, 18269

Orbit data source: Space-Track

OPS 4682 DEB, 18269 is space debris in LEO originally from a launch on Sat, 03 Apr 1965 UTC launched from the Air Force Western Test Range (AFWTR). Debris objects in space refer to the collection of defunct objects orbiting the Earth. Examples of debris include non-operational satellites, rocket bodies, and fragments generated from explosions, collisions, or faulty payload assembly.

Loading next visibility...
Identifier
18269, 1965-027Y
Orbit
LEO
Country
Flag of USUS
Related business
Manufacturer
Unknown
Mission
Spacecraft
Bus & Motor
Unknown
Mass
Unknown
Launch date (UTC)
1965-04-03 (61 years ago)
Launch vehicle
Unknown
Launch site
Air Force Western Test Range (AFWTR)
Object type
Payload
Rocket body
Debris
Shape & HBR
Unknown shape, 0.1 m
Radar Cross Section
Medium (>0.1 m² and <1 m²)

Expand to show TLE details & history
Last TLE update: 1 day ago

TLE from 1 day ago
0 OPS 4682 DEB
1 18269U 65027Y   26174.00549085  .00000511  00000-0  17679-2 0  9996
2 18269  90.2583  13.7228 0031156 162.6855 197.5335 12.95948845570647
Epoch: 2026-06-23T00:07Z
TLE epoch observation values (Epoch: 2026-06-23T00:07:54.409Z)
Latitude
0.00001°
Longitude
100.56283°
Altitude
1,303.635 km
Speed
7.194 km/s
True Right ascension
00h 54m 53s
True Declination
0° 00' 00"
Sunlit
Object was in daylight at epoch
Visualization orbit readout
Latitude
Unknown
Longitude
Unknown
Altitude
Unknown
Speed
Unknown
Apparent Right ascension
Unknown
Apparent Declination
Unknown
Sunlit
N/A
Visualization observer readout
Local Sidereal Time
22:44:02
Azimuth
Unknown
Elevation
Unknown
Doppler factor
Unknown
Orbital elements
Apogee altitude
1,298.978 km
Perigee altitude
1,251.289 km
Semi-major axis
7,653.271 km
Eccentricity
0.00312
Inclination
90.2583°
RAAN
13.7228°
Arg. of periapsis
162.6855°
True anomaly
197.42634°
Mean anomaly
197.5335°
Eccentric anomaly
197.47988°
Mean motion
3.2417 °/min
Orbital period
111.05 mins
BSTAR
0.0017679
Loading maneuver chart data...
Computing Atmospheric mass density...
Loading historical data...
Loading historical data...
Loading historical data...
Loading historical data...
Loading historical data...
Loading historical data...
Loading historical data...

Documentation

Showing up to 5 results
|